Weather Roundup
Issued by NWS Corpus Christi, TX

Home | Current Version | Previous Version | Text Only | Print | Product List | Glossary On
Versions: 1 2 3 4 5 6 7 8 9 10 11 12 13 14 15 16 17 18 19 20 21 22 23 24 25 26 27 28 29 30 31 32 33 34 35 36 37 38 39 40 41 42 43 44 45 46 47 48 49 50
000
ASUS44 KCRP 301310
HRRCRP

SOUTH TEXAS REGIONAL WEATHER ROUNDUP
NATIONAL WEATHER SERVICE CORPUS CHRISTI TX
800 AM CDT SAT MAY 30 2015


TXZ229>244-301400-
...CORPUS CHRISTI AREA OBSERVATIONS...

CITY           SKY/WX    TMP DP  RH WIND       PRES   REMARKS
CORPUS CHRISTI MOSUNNY   77  75  93 CALM      29.99R
NAS CORPUS CHR MOSUNNY   79  76  90 SE5       29.99R
ROCKPORT       MOSUNNY   79  74  84 CALM      30.00R
KINGSVILLE NAS SUNNY     77  77 100 E3        29.99R FOG
ALICE          FOG       75  73  93 E3        29.98F VSB 1/4
FALFURRIAS     CLOUDY    74  73  96 NE3       29.98R VSB<1/4
$$

...VICTORIA AREA OBSERVATIONS...

CITY           SKY/WX    TMP DP  RH WIND       PRES   REMARKS
VICTORIA       PTSUNNY   75  75 100 CALM      30.01S FOG
BEEVILLE       FOG       73  73 100 CALM      30.01R VSB 1/4
PLEASANTON     CLOUDY    73  72  96 N8        30.06R FOG
SAN ANTONIO    PTSUNNY   76  71  85 NE6       30.06R
$$

...LAREDO AREA OBSERVATIONS...

CITY           SKY/WX    TMP DP  RH WIND       PRES   REMARKS
LAREDO         PTSUNNY   75  73  93 SE8       29.99R
COTULLA        PTSUNNY   75  73  93 SE9       30.00R
DEL RIO        LGT RAIN  75  72  90 E7        30.01R
MCALLEN        MOSUNNY   80  75  84 E7        29.97R
HEBBRONVILLE     N/A     74  73  95 E9        30.00R FOG
$$

...OTHER TEXAS OBSERVATIONS...

CITY           SKY/WX    TMP DP  RH WIND       PRES   REMARKS
BROWNSVILLE    MOSUNNY   78  76  93 E5        29.96R
HOUSTON        PTSUNNY   77  75  93 S3        30.02R
COL. STATION   CLOUDY    74  71  91 W6        30.06R
AUSTIN         PTSUNNY   73  71  93 CALM      30.06R
WACO           LGT RAIN  65  63  93 NE3       30.05F
FORT WORTH     TSTM      65  64  97 CALM      30.06R FOG
WICHITA FALLS  CLOUDY    67  64  90 W8        30.06R
LUBBOCK        CLOUDY    59  55  87 N10       30.23R
EL PASO        MOSUNNY   69  53  56 NE14      30.13R
$$

...MARINE OBSERVATIONS...

STATION/POSITION TIME  SKY/WX   TEMP    WIND        PRES    VSBY  WAVE   SWELL
                                AIR SEA DIR/SP/G                  HT/PER HT/PER
                 (UTC)          (F)     (DEG/KT/KT) (MB)    (MI)  (FT/S) (FT/S)
PORT ARANSAS     1300            81 81  150/  6/  7 1016.2R
BUOY 90 E PORT A 1250            80 80  200/  4/  6 1016.3R         2/ 5   2/ 5
BUOY 45 SE BAFFI 1250            81 81  150/  8/ 10 1014.9R         3/ 6   2/ 6
BUOY 200 E PT IS 1250            81 81  120/  8/ 12 1015.9R         3/ 6   2/ 6
BUOY 15 E GALVES 1250            80 80  180/  6/  8 1016.1R         2/ 5   2/ 5
$$


USA.gov is the U.S. government's official web portal to all federal, state and local government web resources and services.